TUI39C EDDF-LPPT

Flight info

Callsign TUI39C
Flight time 2h 52m
Altitude 38000
Route SOBRA2L SOBRA Y180 DIK UN857 TOLVU/N0456F370 DCT RAPOR DCT GIMER/N0452F350 DCT ESTOC UT300 PON UN872 GODIX/N0448F310 UN872 DIDAK/N0456F370 UN872 TERPO/N0453F350 UN872 ERIGA UZ218 FUJTI/N0456F370 DCT ATLEN DCT ABUPI DCT XAMAX
Aircraft B738/M-SDE2E3FGHIRWXY/LB1

Departure

Time 2026-05-07 15:06
Airport Frankfurt Main Airport (EDDF)

Arrival

Time 2026-05-07 17:59
Airport Lisbon Humberto Delgado Airport (LPPT)
Time Latitude Longitude Altitude Speed Heading
2026-05-07 14:34 50.04911 8.58867 368 ft 0 kts 160°
2026-05-07 14:49 50.04911 8.58866 368 ft 0 kts 160°
2026-05-07 14:50 50.04925 8.58859 369 ft 2 kts 160°
2026-05-07 14:50 50.04939 8.58851 370 ft 2 kts 160°
2026-05-07 14:50 50.04953 8.58843 371 ft 2 kts 160°
2026-05-07 14:50 50.04968 8.58836 372 ft 2 kts 182°
2026-05-07 14:51 50.04982 8.58841 372 ft 2 kts 208°
2026-05-07 14:51 50.04994 8.58856 373 ft 2 kts 236°
2026-05-07 14:51 50.04998 8.58867 373 ft 1 kts 252°
2026-05-07 14:51 50.04999 8.58874 373 ft 0 kts 251°
2026-05-07 14:57 50.04998 8.58873 373 ft 0 kts 251°
2026-05-07 14:57 50.04993 8.58852 373 ft 3 kts 250°
2026-05-07 14:57 50.04980 8.58798 373 ft 7 kts 250°
2026-05-07 14:57 50.04958 8.58705 374 ft 11 kts 250°
2026-05-07 14:58 50.04928 8.58576 375 ft 14 kts 250°
2026-05-07 14:58 50.04890 8.58413 377 ft 17 kts 250°
2026-05-07 14:58 50.04846 8.58233 380 ft 19 kts 250°
2026-05-07 14:58 50.04800 8.58044 377 ft 12 kts 248°
2026-05-07 14:59 50.04728 8.57916 373 ft 18 kts 223°
2026-05-07 14:59 50.04664 8.57716 371 ft 22 kts 250°
2026-05-07 14:59 50.04607 8.57475 370 ft 24 kts 250°
2026-05-07 14:59 50.04549 8.57236 372 ft 20 kts 250°
2026-05-07 15:00 50.04516 8.57094 371 ft 11 kts 250°
2026-05-07 15:00 50.04487 8.56973 370 ft 12 kts 250°
2026-05-07 15:00 50.04451 8.56825 369 ft 17 kts 250°
2026-05-07 15:00 50.04400 8.56612 365 ft 23 kts 250°
2026-05-07 15:01 50.04339 8.56353 361 ft 27 kts 249°
2026-05-07 15:01 50.04274 8.56083 359 ft 26 kts 250°
2026-05-07 15:01 50.04210 8.55816 356 ft 26 kts 250°
2026-05-07 15:01 50.04148 8.55555 356 ft 24 kts 250°
2026-05-07 15:02 50.04090 8.55314 354 ft 23 kts 250°
2026-05-07 15:02 50.04033 8.55072 350 ft 24 kts 250°
2026-05-07 15:02 50.03973 8.54825 347 ft 24 kts 250°
2026-05-07 15:02 50.03913 8.54576 342 ft 24 kts 250°
2026-05-07 15:03 50.03855 8.54358 342 ft 19 kts 236°
2026-05-07 15:03 50.03791 8.54183 343 ft 17 kts 250°
2026-05-07 15:03 50.03752 8.54023 345 ft 14 kts 250°
2026-05-07 15:03 50.03717 8.53878 348 ft 14 kts 250°
2026-05-07 15:04 50.03680 8.53723 348 ft 17 kts 250°
2026-05-07 15:04 50.03630 8.53522 347 ft 22 kts 249°
2026-05-07 15:04 50.03572 8.53284 343 ft 24 kts 250°
2026-05-07 15:04 50.03514 8.53043 341 ft 23 kts 249°
2026-05-07 15:05 50.03457 8.52820 340 ft 19 kts 247°
2026-05-07 15:05 50.03409 8.52645 339 ft 15 kts 241°
2026-05-07 15:05 50.03326 8.52593 337 ft 13 kts 180°
2026-05-07 15:05 50.03169 8.52595 334 ft 48 kts 180°
2026-05-07 15:06 50.02607 8.52600 328 ft 111 kts 180°
2026-05-07 15:06 50.01648 8.52610 334 ft 161 kts 181°
2026-05-07 15:06 50.00503 8.52638 794 ft 167 kts 181°
2026-05-07 15:06 49.99336 8.52666 1410 ft 170 kts 181°
2026-05-07 15:07 49.98111 8.52721 1861 ft 185 kts 179°
2026-05-07 15:07 49.96791 8.52801 2372 ft 200 kts 178°
2026-05-07 15:07 49.95356 8.52898 2894 ft 216 kts 178°
2026-05-07 15:07 49.93778 8.53006 3392 ft 236 kts 178°
2026-05-07 15:08 49.92118 8.53117 4162 ft 244 kts 178°
2026-05-07 15:08 49.90447 8.53229 5038 ft 246 kts 179°
2026-05-07 15:08 49.88724 8.53344 5917 ft 248 kts 179°
2026-05-07 15:08 49.87009 8.53250 6709 ft 251 kts 192°
2026-05-07 15:09 49.85305 8.52505 7319 ft 262 kts 203°
2026-05-07 15:09 49.83570 8.51434 7880 ft 277 kts 204°
2026-05-07 15:09 49.81756 8.50304 8585 ft 285 kts 205°
2026-05-07 15:09 49.80016 8.48928 9416 ft 286 kts 216°
2026-05-07 15:10 49.78520 8.46901 10251 ft 286 kts 232°
2026-05-07 15:10 49.77448 8.44297 10752 ft 299 kts 247°
2026-05-07 15:10 49.76754 8.41198 11232 ft 313 kts 259°
2026-05-07 15:10 49.76579 8.37784 11663 ft 327 kts 276°
2026-05-07 15:11 49.77004 8.34267 12116 ft 341 kts 283°
2026-05-07 15:11 49.77599 8.30686 12607 ft 354 kts 285°
2026-05-07 15:11 49.78235 8.26995 13389 ft 358 kts 285°
2026-05-07 15:11 49.78867 8.23265 14164 ft 361 kts 284°
2026-05-07 15:12 49.79490 8.19491 14946 ft 364 kts 284°
2026-05-07 15:12 49.80101 8.15721 15669 ft 369 kts 284°
2026-05-07 15:12 49.80721 8.11848 16403 ft 372 kts 284°
2026-05-07 15:12 49.81335 8.07982 17083 ft 377 kts 284°
2026-05-07 15:13 49.81955 8.04056 17834 ft 379 kts 284°
2026-05-07 15:13 49.82582 8.00057 18496 ft 384 kts 283°
2026-05-07 15:13 49.83203 7.96072 19180 ft 387 kts 283°
2026-05-07 15:13 49.83841 7.91981 19852 ft 390 kts 283°
2026-05-07 15:14 49.84477 7.87902 20492 ft 394 kts 283°
2026-05-07 15:14 49.85119 7.83781 21150 ft 397 kts 283°
2026-05-07 15:14 49.85760 7.79659 21699 ft 401 kts 283°
2026-05-07 15:14 49.86415 7.75452 22317 ft 404 kts 284°
2026-05-07 15:15 49.87077 7.71234 22919 ft 407 kts 284°
2026-05-07 15:15 49.87747 7.66960 23448 ft 411 kts 284°
2026-05-07 15:15 49.88417 7.62651 24017 ft 414 kts 284°
2026-05-07 15:15 49.89092 7.58278 24563 ft 417 kts 284°
2026-05-07 15:16 49.89766 7.53904 25085 ft 421 kts 284°
2026-05-07 15:16 49.90436 7.49534 25598 ft 424 kts 284°
2026-05-07 15:16 49.91120 7.45065 26095 ft 427 kts 284°
2026-05-07 15:16 49.91803 7.40585 26594 ft 430 kts 284°
2026-05-07 15:17 49.92495 7.36039 27059 ft 433 kts 284°
2026-05-07 15:17 49.93188 7.31475 27516 ft 436 kts 283°
2026-05-07 15:17 49.93876 7.26931 27985 ft 439 kts 283°
2026-05-07 15:17 49.94576 7.22292 28404 ft 442 kts 283°
2026-05-07 15:18 49.95278 7.17636 28840 ft 445 kts 283°
2026-05-07 15:18 49.95977 7.12975 29262 ft 447 kts 283°
2026-05-07 15:18 49.96684 7.08255 29681 ft 450 kts 283°
2026-05-07 15:18 49.97383 7.03568 30331 ft 446 kts 283°
2026-05-07 15:19 49.98075 6.98891 30959 ft 443 kts 283°
2026-05-07 15:19 49.98677 6.94225 31407 ft 443 kts 281°
2026-05-07 15:19 49.99070 6.89537 31844 ft 443 kts 275°
2026-05-07 15:19 49.99194 6.84811 32288 ft 442 kts 271°
2026-05-07 15:20 49.99150 6.80044 32761 ft 440 kts 269°
2026-05-07 15:20 49.99023 6.75311 33207 ft 439 kts 268°
2026-05-07 15:20 49.98860 6.70587 33622 ft 438 kts 268°
2026-05-07 15:20 49.98687 6.65930 33951 ft 438 kts 268°
2026-05-07 15:21 49.98443 6.61193 34350 ft 437 kts 264°
2026-05-07 15:21 49.97910 6.56615 34653 ft 438 kts 258°
2026-05-07 15:21 49.97044 6.52053 34939 ft 438 kts 252°
2026-05-07 15:21 49.95989 6.47681 35230 ft 437 kts 250°
2026-05-07 15:22 49.94826 6.43343 35457 ft 438 kts 248°
2026-05-07 15:22 49.93609 6.39018 35718 ft 437 kts 248°
2026-05-07 15:22 49.92381 6.34734 35976 ft 436 kts 247°
2026-05-07 15:22 49.91148 6.30459 36186 ft 436 kts 246°
2026-05-07 15:23 49.89919 6.26202 36410 ft 436 kts 246°
2026-05-07 15:23 49.88652 6.21916 36641 ft 435 kts 246°
2026-05-07 15:23 49.87415 6.17674 36833 ft 435 kts 246°
2026-05-07 15:23 49.86090 6.13473 37029 ft 435 kts 242°
2026-05-07 15:24 49.84568 6.09473 37240 ft 435 kts 238°
2026-05-07 15:24 49.82883 6.05553 37404 ft 436 kts 236°
2026-05-07 15:24 49.81142 6.01739 37609 ft 435 kts 235°
2026-05-07 15:24 49.79363 5.97943 37788 ft 435 kts 234°
2026-05-07 15:25 49.77609 5.94233 37964 ft 435 kts 234°
2026-05-07 15:25 49.75838 5.90446 38008 ft 437 kts 236°
2026-05-07 15:25 49.72932 5.82213 38028 ft 435 kts 248°
2026-05-07 15:26 49.70811 5.73541 38026 ft 432 kts 251°
2026-05-07 15:26 49.68869 5.64824 38012 ft 432 kts 251°
2026-05-07 15:27 49.66892 5.56037 38013 ft 433 kts 251°
2026-05-07 15:27 49.64888 5.47337 38009 ft 433 kts 251°
2026-05-07 15:28 49.62848 5.38618 38008 ft 432 kts 251°
2026-05-07 15:28 49.60886 5.29927 38012 ft 432 kts 251°
2026-05-07 15:29 49.59032 5.21155 38011 ft 431 kts 252°
2026-05-07 15:29 49.57374 5.12319 38017 ft 431 kts 255°
2026-05-07 15:30 49.55857 5.03406 38009 ft 432 kts 255°
2026-05-07 15:30 49.54330 4.94525 38011 ft 432 kts 255°
2026-05-07 15:31 49.52767 4.85650 38004 ft 431 kts 255°
2026-05-07 15:31 49.51179 4.76769 38005 ft 431 kts 255°
2026-05-07 15:32 49.49583 4.67926 37998 ft 431 kts 255°
2026-05-07 15:32 49.47979 4.59099 37999 ft 431 kts 255°
2026-05-07 15:33 49.46361 4.50242 38000 ft 430 kts 254°
2026-05-07 15:33 49.44749 4.41456 37990 ft 431 kts 254°
2026-05-07 15:34 49.43119 4.32618 38000 ft 433 kts 253°
2026-05-07 15:34 49.41476 4.23762 38000 ft 430 kts 253°
2026-05-07 15:35 49.39840 4.14982 38009 ft 431 kts 253°
2026-05-07 15:35 49.38189 4.06162 38013 ft 432 kts 253°
2026-05-07 15:36 49.36534 3.97358 38014 ft 431 kts 254°
2026-05-07 15:36 49.35095 3.88404 38016 ft 431 kts 257°
2026-05-07 15:37 49.33876 3.79505 38011 ft 430 kts 258°
2026-05-07 15:37 49.32645 3.70529 38011 ft 430 kts 258°
2026-05-07 15:38 49.31387 3.61626 38011 ft 430 kts 257°
2026-05-07 15:38 49.30103 3.52716 38012 ft 430 kts 257°
2026-05-07 15:39 49.28803 3.43817 38011 ft 429 kts 257°
2026-05-07 15:39 49.27491 3.34898 38013 ft 429 kts 256°
2026-05-07 15:40 49.26172 3.25998 38012 ft 430 kts 256°
2026-05-07 15:40 49.24847 3.17110 38010 ft 431 kts 256°
2026-05-07 15:41 49.23513 3.08214 38008 ft 430 kts 256°
2026-05-07 15:41 49.22176 2.99335 38010 ft 429 kts 256°
2026-05-07 15:42 49.20834 2.90485 38007 ft 429 kts 256°
2026-05-07 15:42 49.19490 2.81671 38016 ft 429 kts 256°
2026-05-07 15:43 49.18131 2.72800 38017 ft 429 kts 256°
2026-05-07 15:43 49.16767 2.63954 38016 ft 430 kts 256°
2026-05-07 15:44 49.15391 2.55076 38021 ft 430 kts 256°
2026-05-07 15:44 49.14021 2.46285 38020 ft 429 kts 256°
2026-05-07 15:45 49.12693 2.37391 38023 ft 429 kts 259°
2026-05-07 15:45 49.11780 2.28471 38021 ft 429 kts 261°
2026-05-07 15:46 49.10612 2.14953 38024 ft 429 kts 261°
2026-05-07 15:47 49.09720 2.05999 38022 ft 429 kts 257°
2026-05-07 15:47 49.07874 1.97357 38023 ft 429 kts 247°
2026-05-07 15:48 49.05428 1.89127 38019 ft 430 kts 245°
2026-05-07 15:48 49.02866 1.80912 38013 ft 431 kts 245°
2026-05-07 15:49 49.00321 1.72693 38011 ft 429 kts 245°
2026-05-07 15:49 48.97805 1.64486 38003 ft 428 kts 245°
2026-05-07 15:50 48.95312 1.56331 38001 ft 429 kts 245°
2026-05-07 15:50 48.92800 1.48121 38005 ft 429 kts 245°
2026-05-07 15:51 48.90282 1.39912 38013 ft 430 kts 245°
2026-05-07 15:51 48.87753 1.31689 38013 ft 430 kts 245°
2026-05-07 15:52 48.85238 1.23538 38012 ft 430 kts 245°
2026-05-07 15:52 48.82700 1.15349 38012 ft 429 kts 245°
2026-05-07 15:53 48.80163 1.07185 38013 ft 429 kts 245°
2026-05-07 15:53 48.77631 0.99066 38009 ft 429 kts 244°
2026-05-07 15:54 48.75086 0.90923 38005 ft 429 kts 245°
2026-05-07 15:54 48.72275 0.82969 38001 ft 429 kts 239°
2026-05-07 15:55 48.69137 0.75326 38000 ft 429 kts 238°
2026-05-07 15:55 48.65942 0.67692 37999 ft 430 kts 238°
2026-05-07 15:56 48.62789 0.60071 37994 ft 429 kts 238°
2026-05-07 15:56 48.59662 0.52458 37997 ft 429 kts 239°
2026-05-07 15:57 48.56515 0.44786 37991 ft 430 kts 239°
2026-05-07 15:57 48.53386 0.37166 37986 ft 429 kts 238°
2026-05-07 15:58 48.50242 0.29526 37983 ft 429 kts 238°
2026-05-07 15:58 48.47118 0.21959 37981 ft 429 kts 238°
2026-05-07 15:59 48.43968 0.14351 37980 ft 429 kts 238°
2026-05-07 15:59 48.40823 0.06779 37977 ft 428 kts 238°
2026-05-07 16:00 48.37666 -0.00805 37977 ft 428 kts 238°
2026-05-07 16:00 48.34437 -0.08273 37973 ft 429 kts 235°
2026-05-07 16:01 48.30883 -0.15469 37975 ft 429 kts 233°
2026-05-07 16:01 48.27277 -0.22534 37974 ft 429 kts 233°
2026-05-07 16:02 48.23662 -0.29631 37976 ft 429 kts 233°
2026-05-07 16:02 48.20021 -0.36711 37980 ft 429 kts 232°
2026-05-07 16:03 48.16405 -0.43735 37979 ft 429 kts 233°
2026-05-07 16:03 48.12760 -0.50820 37977 ft 428 kts 233°
2026-05-07 16:04 48.09156 -0.57821 37979 ft 429 kts 233°
2026-05-07 16:04 48.05505 -0.64899 37979 ft 429 kts 233°
2026-05-07 16:05 48.01886 -0.71901 37977 ft 429 kts 232°
2026-05-07 16:05 47.98244 -0.78930 37977 ft 429 kts 232°
2026-05-07 16:06 47.94592 -0.85958 37976 ft 429 kts 232°
2026-05-07 16:06 47.90942 -0.92964 37970 ft 429 kts 232°
2026-05-07 16:07 47.87299 -0.99943 37975 ft 428 kts 232°
2026-05-07 16:07 47.83651 -1.06910 37978 ft 428 kts 232°
2026-05-07 16:08 47.79986 -1.13889 37979 ft 429 kts 232°
2026-05-07 16:08 47.76335 -1.20827 37975 ft 430 kts 232°
2026-05-07 16:09 47.72656 -1.27800 37971 ft 428 kts 232°
2026-05-07 16:09 47.68985 -1.34741 37972 ft 428 kts 232°
2026-05-07 16:10 47.65334 -1.41627 37968 ft 428 kts 232°
2026-05-07 16:10 47.61641 -1.48572 37965 ft 429 kts 232°
2026-05-07 16:11 47.57908 -1.55395 37960 ft 429 kts 230°
2026-05-07 16:11 47.53930 -1.61963 37957 ft 429 kts 228°
2026-05-07 16:12 47.49923 -1.68413 37957 ft 429 kts 227°
2026-05-07 16:12 47.45891 -1.74937 37949 ft 429 kts 228°
2026-05-07 16:13 47.41901 -1.81429 37948 ft 429 kts 228°
2026-05-07 16:13 47.37911 -1.87903 37944 ft 428 kts 227°
2026-05-07 16:14 47.33566 -1.93908 37950 ft 429 kts 218°
2026-05-07 16:14 47.28607 -1.98792 37947 ft 431 kts 212°
2026-05-07 16:15 47.23486 -2.03287 37951 ft 431 kts 211°
2026-05-07 16:15 47.18321 -2.07776 37951 ft 431 kts 212°
2026-05-07 16:16 47.13219 -2.12255 37950 ft 431 kts 212°
2026-05-07 16:16 47.08068 -2.16804 37951 ft 430 kts 212°
2026-05-07 16:17 47.02982 -2.21302 37949 ft 430 kts 212°
2026-05-07 16:17 46.97866 -2.25821 37949 ft 429 kts 212°
2026-05-07 16:18 46.92766 -2.30321 37951 ft 429 kts 212°
2026-05-07 16:18 46.87642 -2.34829 37954 ft 431 kts 212°
2026-05-07 16:19 46.82529 -2.39323 37958 ft 431 kts 212°
2026-05-07 16:19 46.77423 -2.43806 37964 ft 431 kts 212°
2026-05-07 16:20 46.72282 -2.48308 37960 ft 431 kts 212°
2026-05-07 16:20 46.67147 -2.52792 37961 ft 430 kts 212°
2026-05-07 16:21 46.62043 -2.57239 38048 ft 431 kts 212°
2026-05-07 16:21 46.56888 -2.61722 37955 ft 428 kts 212°
2026-05-07 16:22 46.51804 -2.66133 37955 ft 428 kts 212°
2026-05-07 16:22 46.46686 -2.70566 37963 ft 431 kts 212°
2026-05-07 16:23 46.41557 -2.74997 37966 ft 431 kts 212°
2026-05-07 16:23 46.36395 -2.79446 37967 ft 431 kts 212°
2026-05-07 16:24 46.31277 -2.83846 37966 ft 431 kts 212°
2026-05-07 16:24 46.26215 -2.88454 37966 ft 429 kts 217°
2026-05-07 16:25 46.21565 -2.93762 37966 ft 430 kts 221°
2026-05-07 16:25 46.17036 -2.99355 37966 ft 430 kts 221°
2026-05-07 16:26 46.12496 -3.04993 37964 ft 430 kts 221°
2026-05-07 16:26 46.07978 -3.10542 37966 ft 430 kts 221°
2026-05-07 16:27 46.03418 -3.16095 37967 ft 431 kts 221°
2026-05-07 16:27 45.98830 -3.21655 37964 ft 431 kts 221°
2026-05-07 16:28 45.94257 -3.27182 37957 ft 431 kts 221°
2026-05-07 16:28 45.89682 -3.32693 37957 ft 432 kts 221°
2026-05-07 16:29 45.85101 -3.38200 37954 ft 432 kts 221°
2026-05-07 16:29 45.80497 -3.43722 37953 ft 432 kts 221°
2026-05-07 16:30 45.75910 -3.49209 37958 ft 431 kts 221°
2026-05-07 16:30 45.71298 -3.54717 37951 ft 431 kts 221°
2026-05-07 16:31 45.66721 -3.60170 37952 ft 433 kts 221°
2026-05-07 16:31 45.62102 -3.65661 37946 ft 433 kts 220°
2026-05-07 16:32 45.57478 -3.71152 37946 ft 434 kts 220°
2026-05-07 16:32 45.52845 -3.76632 37937 ft 434 kts 220°
2026-05-07 16:33 45.48214 -3.82100 37935 ft 434 kts 220°
2026-05-07 16:33 45.43573 -3.87565 37936 ft 433 kts 220°
2026-05-07 16:34 45.38939 -3.93011 37931 ft 433 kts 220°
2026-05-07 16:34 45.34311 -3.98440 37933 ft 433 kts 221°
2026-05-07 16:35 45.29647 -4.03900 37933 ft 434 kts 220°
2026-05-07 16:35 45.24988 -4.09342 37931 ft 435 kts 220°
2026-05-07 16:36 45.20352 -4.14743 37942 ft 435 kts 221°
2026-05-07 16:36 45.15694 -4.20158 37939 ft 435 kts 221°
2026-05-07 16:37 45.11003 -4.25603 37939 ft 435 kts 221°
2026-05-07 16:37 45.06351 -4.30988 37944 ft 435 kts 221°
2026-05-07 16:38 45.01652 -4.36417 37926 ft 435 kts 221°
2026-05-07 16:38 44.97001 -4.41777 37920 ft 435 kts 221°
2026-05-07 16:39 44.92303 -4.47180 37921 ft 436 kts 221°
2026-05-07 16:39 44.87602 -4.52577 37924 ft 436 kts 221°
2026-05-07 16:40 44.82922 -4.57934 37922 ft 436 kts 221°
2026-05-07 16:40 44.78215 -4.63314 37920 ft 437 kts 221°
2026-05-07 16:41 44.73513 -4.68674 37919 ft 438 kts 220°
2026-05-07 16:41 44.68796 -4.74042 37915 ft 438 kts 221°
2026-05-07 16:42 44.64084 -4.79390 37914 ft 437 kts 221°
2026-05-07 16:42 44.59338 -4.84763 37914 ft 438 kts 221°
2026-05-07 16:43 44.54619 -4.90094 37909 ft 438 kts 221°
2026-05-07 16:43 44.49851 -4.95414 37905 ft 439 kts 218°
2026-05-07 16:44 44.44773 -5.00119 37899 ft 441 kts 214°
2026-05-07 16:44 44.39511 -5.04579 37909 ft 443 kts 213°
2026-05-07 16:45 44.34291 -5.08999 37903 ft 441 kts 214°
2026-05-07 16:45 44.29077 -5.13476 37905 ft 441 kts 214°
2026-05-07 16:46 44.23840 -5.18005 37896 ft 442 kts 214°
2026-05-07 16:46 44.18658 -5.22492 37893 ft 440 kts 214°
2026-05-07 16:47 44.13472 -5.26974 37902 ft 442 kts 214°
2026-05-07 16:47 44.08237 -5.31489 37890 ft 441 kts 215°
2026-05-07 16:48 44.03043 -5.35959 37889 ft 442 kts 215°
2026-05-07 16:48 43.97828 -5.40440 37881 ft 443 kts 215°
2026-05-07 16:49 43.92593 -5.44932 37881 ft 442 kts 215°
2026-05-07 16:49 43.87362 -5.49414 37879 ft 442 kts 215°
2026-05-07 16:50 43.82168 -5.53852 37885 ft 442 kts 215°
2026-05-07 16:50 43.76930 -5.58317 37884 ft 442 kts 215°
2026-05-07 16:51 43.71706 -5.62761 37871 ft 442 kts 215°
2026-05-07 16:51 43.66471 -5.67201 37875 ft 443 kts 215°
2026-05-07 16:52 43.61227 -5.71638 37871 ft 442 kts 215°
2026-05-07 16:52 43.56000 -5.76053 37864 ft 443 kts 215°
2026-05-07 16:53 43.50755 -5.80477 37883 ft 442 kts 215°
2026-05-07 16:53 43.45553 -5.84859 37873 ft 441 kts 215°
2026-05-07 16:54 43.40307 -5.89266 37885 ft 443 kts 215°
2026-05-07 16:54 43.35073 -5.93657 37868 ft 442 kts 215°
2026-05-07 16:55 43.29833 -5.98044 37875 ft 442 kts 215°
2026-05-07 16:55 43.24573 -6.02432 37874 ft 441 kts 215°
2026-05-07 16:56 43.19335 -6.06796 37888 ft 441 kts 216°
2026-05-07 16:56 43.11468 -6.13331 37904 ft 441 kts 216°
2026-05-07 16:57 43.06254 -6.17655 37909 ft 441 kts 216°
2026-05-07 16:57 43.01006 -6.21997 37910 ft 441 kts 216°
2026-05-07 16:58 42.95796 -6.26301 37910 ft 439 kts 216°
2026-05-07 16:58 42.90577 -6.30598 37903 ft 438 kts 216°
2026-05-07 16:59 42.85382 -6.34872 37896 ft 438 kts 216°
2026-05-07 16:59 42.80178 -6.39147 37899 ft 438 kts 216°
2026-05-07 17:00 42.74978 -6.43401 37902 ft 438 kts 216°
2026-05-07 17:00 42.69780 -6.47647 37897 ft 436 kts 217°
2026-05-07 17:01 42.64585 -6.51883 37896 ft 436 kts 216°
2026-05-07 17:01 42.59409 -6.56097 37898 ft 437 kts 217°
2026-05-07 17:02 42.54127 -6.60393 37893 ft 447 kts 217°
2026-05-07 17:02 42.48766 -6.64744 37897 ft 452 kts 217°
2026-05-07 17:03 42.43377 -6.69098 37893 ft 450 kts 216°
2026-05-07 17:03 42.38013 -6.73425 37900 ft 451 kts 216°
2026-05-07 17:04 42.32652 -6.77745 37906 ft 448 kts 217°
2026-05-07 17:04 42.27314 -6.82038 37902 ft 450 kts 217°
2026-05-07 17:05 42.21955 -6.86335 37899 ft 448 kts 216°
2026-05-07 17:05 42.16628 -6.90602 37892 ft 446 kts 217°
2026-05-07 17:06 42.11290 -6.94863 37882 ft 446 kts 216°
2026-05-07 17:06 42.05940 -6.99134 37876 ft 447 kts 217°
2026-05-07 17:07 42.00630 -7.03360 37869 ft 443 kts 216°
2026-05-07 17:07 41.95348 -7.07554 37873 ft 443 kts 217°
2026-05-07 17:08 41.90058 -7.11757 37872 ft 443 kts 217°
2026-05-07 17:08 41.84770 -7.15935 37869 ft 441 kts 216°
2026-05-07 17:09 41.79512 -7.20052 37873 ft 440 kts 216°
2026-05-07 17:09 41.74216 -7.24188 37866 ft 441 kts 216°
2026-05-07 17:10 41.68933 -7.28297 37870 ft 439 kts 216°
2026-05-07 17:10 41.63650 -7.32402 37864 ft 438 kts 216°
2026-05-07 17:11 41.58396 -7.36480 37863 ft 438 kts 217°
2026-05-07 17:11 41.53135 -7.40557 37869 ft 436 kts 217°
2026-05-07 17:12 41.47937 -7.44579 37864 ft 434 kts 217°
2026-05-07 17:12 41.42701 -7.48623 37873 ft 434 kts 217°
2026-05-07 17:13 41.37504 -7.52622 37874 ft 432 kts 217°
2026-05-07 17:13 41.32307 -7.56616 37870 ft 432 kts 217°
2026-05-07 17:14 41.27132 -7.60585 37877 ft 432 kts 217°
2026-05-07 17:14 41.21918 -7.64563 37879 ft 430 kts 216°
2026-05-07 17:15 41.16754 -7.68501 37877 ft 431 kts 216°
2026-05-07 17:15 41.11559 -7.72470 37874 ft 432 kts 216°
2026-05-07 17:16 41.06379 -7.76421 37877 ft 427 kts 216°
2026-05-07 17:16 41.01250 -7.80327 37877 ft 428 kts 216°
2026-05-07 17:17 40.96090 -7.84243 37873 ft 427 kts 216°
2026-05-07 17:17 40.90913 -7.88157 37880 ft 428 kts 216°
2026-05-07 17:18 40.85746 -7.92061 37875 ft 428 kts 216°
2026-05-07 17:18 40.80618 -7.95930 37873 ft 425 kts 216°
2026-05-07 17:19 40.75462 -7.99821 37869 ft 428 kts 216°
2026-05-07 17:19 40.70353 -8.03662 37869 ft 423 kts 216°
2026-05-07 17:20 40.65212 -8.07524 37867 ft 425 kts 216°
2026-05-07 17:20 40.60129 -8.11331 37869 ft 422 kts 216°
2026-05-07 17:21 40.55016 -8.15153 37865 ft 424 kts 216°
2026-05-07 17:21 40.49889 -8.18973 37880 ft 421 kts 216°
2026-05-07 17:22 40.44797 -8.22770 37874 ft 422 kts 216°
2026-05-07 17:22 40.39706 -8.26533 37863 ft 416 kts 214°
2026-05-07 17:23 40.34425 -8.29269 37769 ft 411 kts 204°
2026-05-07 17:23 40.31646 -8.30310 37493 ft 414 kts 203°
2026-05-07 17:23 40.28859 -8.31289 37224 ft 413 kts 202°
2026-05-07 17:24 40.26123 -8.32245 36955 ft 410 kts 202°
2026-05-07 17:24 40.23360 -8.33232 36692 ft 407 kts 202°
2026-05-07 17:24 40.20634 -8.34233 36442 ft 405 kts 203°
2026-05-07 17:24 40.17961 -8.35235 36236 ft 402 kts 203°
2026-05-07 17:25 40.15281 -8.36252 36032 ft 402 kts 203°
2026-05-07 17:25 40.12577 -8.37285 35822 ft 403 kts 203°
2026-05-07 17:25 40.09886 -8.38316 35609 ft 401 kts 203°
2026-05-07 17:25 40.07224 -8.39338 35398 ft 397 kts 203°
2026-05-07 17:26 40.04592 -8.40345 35194 ft 395 kts 203°
2026-05-07 17:26 40.01962 -8.41348 34987 ft 395 kts 203°
2026-05-07 17:26 39.99347 -8.42345 34778 ft 393 kts 203°
2026-05-07 17:26 39.96719 -8.43350 34568 ft 394 kts 203°
2026-05-07 17:27 39.94073 -8.44365 34353 ft 393 kts 203°
2026-05-07 17:27 39.91478 -8.45358 34130 ft 390 kts 203°
2026-05-07 17:27 39.88882 -8.46347 33903 ft 387 kts 203°
2026-05-07 17:27 39.86306 -8.47331 33685 ft 386 kts 203°
2026-05-07 17:28 39.83755 -8.48306 33464 ft 387 kts 203°
2026-05-07 17:28 39.81154 -8.49301 33243 ft 387 kts 203°
2026-05-07 17:28 39.78605 -8.50303 32953 ft 384 kts 205°
2026-05-07 17:28 39.76114 -8.51491 32612 ft 379 kts 208°
2026-05-07 17:29 39.73751 -8.52964 32283 ft 373 kts 214°
2026-05-07 17:29 39.71497 -8.54622 31947 ft 370 kts 215°
2026-05-07 17:29 39.69307 -8.56356 31615 ft 368 kts 216°
2026-05-07 17:29 39.67131 -8.58108 31282 ft 368 kts 216°
2026-05-07 17:30 39.64981 -8.59832 30959 ft 366 kts 216°
2026-05-07 17:30 39.62819 -8.61554 30632 ft 363 kts 216°
2026-05-07 17:30 39.60660 -8.63260 30309 ft 361 kts 215°
2026-05-07 17:30 39.58515 -8.64949 29980 ft 359 kts 216°
2026-05-07 17:31 39.56407 -8.66607 29666 ft 358 kts 214°
2026-05-07 17:31 39.54281 -8.68277 29355 ft 358 kts 215°
2026-05-07 17:31 39.52156 -8.69946 29042 ft 357 kts 214°
2026-05-07 17:31 39.50032 -8.71610 28724 ft 356 kts 214°
2026-05-07 17:32 39.47913 -8.73267 28403 ft 353 kts 214°
2026-05-07 17:32 39.45827 -8.74896 28097 ft 351 kts 214°
2026-05-07 17:32 39.43740 -8.76526 27770 ft 350 kts 214°
2026-05-07 17:32 39.42375 -8.77606 27521 ft 350 kts 216°
2026-05-07 17:33 39.39752 -8.80038 26941 ft 344 kts 222°
2026-05-07 17:33 39.38037 -8.82123 26475 ft 340 kts 227°
2026-05-07 17:33 39.36446 -8.84367 26037 ft 336 kts 229°
2026-05-07 17:33 39.34932 -8.86625 25598 ft 333 kts 230°
2026-05-07 17:34 39.33420 -8.88905 25162 ft 330 kts 230°
2026-05-07 17:34 39.31943 -8.91116 24746 ft 327 kts 230°
2026-05-07 17:34 39.30461 -8.93317 24333 ft 324 kts 229°
2026-05-07 17:34 39.28976 -8.95505 23906 ft 322 kts 229°
2026-05-07 17:35 39.27516 -8.97645 23492 ft 319 kts 229°
2026-05-07 17:35 39.26041 -8.99804 23080 ft 317 kts 229°
2026-05-07 17:35 39.24610 -9.01899 22681 ft 315 kts 229°
2026-05-07 17:35 39.23160 -9.04022 22269 ft 313 kts 229°
2026-05-07 17:36 39.21734 -9.06106 21857 ft 312 kts 229°
2026-05-07 17:36 39.20287 -9.08218 21446 ft 311 kts 229°
2026-05-07 17:36 39.18872 -9.10283 21047 ft 310 kts 228°
2026-05-07 17:36 39.17452 -9.12355 20636 ft 311 kts 228°
2026-05-07 17:37 39.16014 -9.14451 20220 ft 312 kts 228°
2026-05-07 17:37 39.14571 -9.16554 19808 ft 311 kts 227°
2026-05-07 17:37 39.13156 -9.18614 19395 ft 309 kts 227°
2026-05-07 17:37 39.11741 -9.20672 18995 ft 307 kts 227°
2026-05-07 17:38 39.10324 -9.22730 18611 ft 304 kts 227°
2026-05-07 17:38 39.08935 -9.24748 18219 ft 302 kts 227°
2026-05-07 17:38 39.07556 -9.26750 17838 ft 300 kts 227°
2026-05-07 17:38 39.06176 -9.28755 17444 ft 298 kts 227°
2026-05-07 17:39 39.04814 -9.30730 17092 ft 297 kts 227°
2026-05-07 17:39 39.03446 -9.32712 16645 ft 297 kts 227°
2026-05-07 17:39 39.02085 -9.34682 16272 ft 295 kts 227°
2026-05-07 17:39 39.00714 -9.36666 15886 ft 293 kts 227°
2026-05-07 17:40 38.99369 -9.38610 15498 ft 292 kts 226°
2026-05-07 17:40 38.98040 -9.40530 15115 ft 290 kts 226°
2026-05-07 17:40 38.96693 -9.42478 14730 ft 289 kts 226°
2026-05-07 17:40 38.95359 -9.44403 14346 ft 288 kts 226°
2026-05-07 17:41 38.94044 -9.46299 13963 ft 286 kts 226°
2026-05-07 17:41 38.92713 -9.48216 13582 ft 285 kts 226°
2026-05-07 17:41 38.91413 -9.50090 13209 ft 283 kts 226°
2026-05-07 17:41 38.90110 -9.51965 12834 ft 282 kts 226°
2026-05-07 17:42 38.88708 -9.53731 12536 ft 275 kts 216°
2026-05-07 17:42 38.87066 -9.54804 12434 ft 260 kts 192°
2026-05-07 17:42 38.85306 -9.54978 12210 ft 254 kts 179°
2026-05-07 17:42 38.83530 -9.54938 11891 ft 252 kts 179°
2026-05-07 17:43 38.81779 -9.54925 11585 ft 250 kts 180°
2026-05-07 17:43 38.80053 -9.54966 11288 ft 248 kts 185°
2026-05-07 17:43 38.78410 -9.55552 11012 ft 246 kts 204°
2026-05-07 17:43 38.76922 -9.56581 10915 ft 241 kts 208°
2026-05-07 17:44 38.75454 -9.57688 10916 ft 245 kts 209°
2026-05-07 17:44 38.73977 -9.58802 10892 ft 249 kts 209°
2026-05-07 17:44 38.72492 -9.59919 10901 ft 246 kts 209°
2026-05-07 17:44 38.71006 -9.61036 10825 ft 249 kts 209°
2026-05-07 17:45 38.69454 -9.62019 10575 ft 251 kts 193°
2026-05-07 17:45 38.67762 -9.61945 10293 ft 247 kts 159°
2026-05-07 17:45 38.66297 -9.60790 10021 ft 245 kts 144°
2026-05-07 17:45 38.64949 -9.59478 9684 ft 244 kts 147°
2026-05-07 17:46 38.63538 -9.58314 9340 ft 243 kts 151°
2026-05-07 17:46 38.62063 -9.57254 9041 ft 242 kts 153°
2026-05-07 17:46 38.60590 -9.56237 8722 ft 241 kts 153°
2026-05-07 17:46 38.59067 -9.55312 8373 ft 240 kts 162°
2026-05-07 17:47 38.57476 -9.54785 8082 ft 238 kts 170°
2026-05-07 17:47 38.55849 -9.54428 7920 ft 232 kts 172°
2026-05-07 17:47 38.54278 -9.54084 7917 ft 230 kts 171°
2026-05-07 17:47 38.52683 -9.53702 7918 ft 236 kts 170°
2026-05-07 17:48 38.51062 -9.53295 7892 ft 237 kts 170°
2026-05-07 17:48 38.49486 -9.52731 7892 ft 238 kts 158°
2026-05-07 17:48 38.48048 -9.51673 7905 ft 239 kts 147°
2026-05-07 17:48 38.46680 -9.50416 7900 ft 240 kts 146°
2026-05-07 17:49 38.45324 -9.49186 7904 ft 238 kts 148°
2026-05-07 17:49 38.43958 -9.48002 7904 ft 238 kts 148°
2026-05-07 17:49 38.42580 -9.46831 7909 ft 239 kts 148°
2026-05-07 17:49 38.41286 -9.45460 7896 ft 241 kts 134°
2026-05-07 17:50 38.40325 -9.43727 7897 ft 241 kts 119°
2026-05-07 17:50 38.39907 -9.41655 7804 ft 250 kts 96°
2026-05-07 17:50 38.39948 -9.39435 7484 ft 254 kts 89°
2026-05-07 17:50 38.40078 -9.37179 7140 ft 254 kts 89°
2026-05-07 17:51 38.40209 -9.34948 6890 ft 250 kts 89°
2026-05-07 17:51 38.40525 -9.32796 6618 ft 251 kts 67°
2026-05-07 17:51 38.41645 -9.31136 6358 ft 251 kts 32°
2026-05-07 17:51 38.43247 -9.30324 6118 ft 245 kts 16°
2026-05-07 17:52 38.44862 -9.29745 5829 ft 239 kts 17°
2026-05-07 17:52 38.46421 -9.29137 5552 ft 232 kts 18°
2026-05-07 17:52 38.47943 -9.28505 5313 ft 226 kts 18°
2026-05-07 17:52 38.49409 -9.27882 5086 ft 216 kts 18°
2026-05-07 17:53 38.50805 -9.27309 4827 ft 208 kts 12°
2026-05-07 17:53 38.52204 -9.26987 4578 ft 200 kts
2026-05-07 17:53 38.53543 -9.26557 4339 ft 193 kts 18°
2026-05-07 17:53 38.54774 -9.25964 4099 ft 188 kts 20°
2026-05-07 17:54 38.55957 -9.25345 3979 ft 178 kts 21°
2026-05-07 17:54 38.57074 -9.24758 3990 ft 171 kts 20°
2026-05-07 17:54 38.58203 -9.24164 3997 ft 179 kts 20°
2026-05-07 17:54 38.59360 -9.23553 3983 ft 178 kts 21°
2026-05-07 17:55 38.60515 -9.22938 3831 ft 181 kts 21°
2026-05-07 17:55 38.61680 -9.22324 3531 ft 181 kts 20°
2026-05-07 17:55 38.62827 -9.21719 3285 ft 178 kts 20°
2026-05-07 17:55 38.63962 -9.21116 3041 ft 174 kts 19°
2026-05-07 17:56 38.65067 -9.20530 2802 ft 171 kts 20°
2026-05-07 17:56 38.66147 -9.19956 2566 ft 164 kts 19°
2026-05-07 17:56 38.67199 -9.19398 2365 ft 165 kts 19°
2026-05-07 17:56 38.68254 -9.18838 2123 ft 161 kts 18°
2026-05-07 17:57 38.69244 -9.18309 1933 ft 148 kts 18°
2026-05-07 17:57 38.69875 -9.17975 1767 ft 144 kts 18°
2026-05-07 17:57 38.71101 -9.17324 1559 ft 147 kts 17°
2026-05-07 17:57 38.72049 -9.16836 1441 ft 147 kts 19°
2026-05-07 17:58 38.72988 -9.16316 1237 ft 148 kts 19°
2026-05-07 17:58 38.73955 -9.15821 1019 ft 149 kts 17°
2026-05-07 17:58 38.74913 -9.15310 782 ft 147 kts 20°
2026-05-07 17:58 38.75846 -9.14812 573 ft 145 kts 19°
2026-05-07 17:59 38.76775 -9.14316 354 ft 142 kts 19°
2026-05-07 17:59 38.77548 -9.13905 357 ft 86 kts 22°
2026-05-07 17:59 38.77919 -9.13707 361 ft 39 kts 22°
2026-05-07 17:59 38.78138 -9.13588 361 ft 24 kts 24°
2026-05-07 18:00 38.78261 -9.13495 359 ft 19 kts 38°
2026-05-07 18:00 38.78355 -9.13376 355 ft 17 kts 47°
2026-05-07 18:00 38.78373 -9.13290 350 ft 9 kts 119°
2026-05-07 18:00 38.78327 -9.13263 348 ft 8 kts 193°
2026-05-07 18:01 38.78274 -9.13288 347 ft 8 kts 202°
2026-05-07 18:01 38.78223 -9.13315 347 ft 7 kts 203°
2026-05-07 18:01 38.78173 -9.13342 347 ft 7 kts 203°
2026-05-07 18:01 38.78124 -9.13368 346 ft 7 kts 202°
2026-05-07 18:02 38.78010 -9.13428 345 ft 11 kts 202°
2026-05-07 18:02 38.77927 -9.13473 346 ft 13 kts 203°
2026-05-07 18:02 38.77833 -9.13523 347 ft 15 kts 203°
2026-05-07 18:03 38.77738 -9.13574 347 ft 13 kts 202°
2026-05-07 18:03 38.77642 -9.13595 345 ft 16 kts 170°
2026-05-07 18:03 38.77518 -9.13562 339 ft 19 kts 168°
2026-05-07 18:03 38.77375 -9.13523 335 ft 21 kts 168°
2026-05-07 18:04 38.77223 -9.13482 333 ft 22 kts 168°
2026-05-07 18:04 38.77074 -9.13442 334 ft 21 kts 168°
2026-05-07 18:04 38.76936 -9.13405 336 ft 19 kts 168°
2026-05-07 18:04 38.76814 -9.13372 336 ft 13 kts 168°
2026-05-07 18:05 38.76733 -9.13393 336 ft 12 kts 215°
2026-05-07 18:05 38.76673 -9.13448 338 ft 8 kts 223°
2026-05-07 18:05 38.76653 -9.13509 339 ft 6 kts 258°
2026-05-07 18:05 38.76643 -9.13569 339 ft 7 kts 258°
2026-05-07 18:06 38.76632 -9.13634 340 ft 8 kts 255°
2026-05-07 18:06 38.76586 -9.13667 341 ft 9 kts 174°
2026-05-07 18:06 38.76522 -9.13652 342 ft 8 kts 168°
2026-05-07 18:06 38.76484 -9.13642 342 ft 3 kts 168°
2026-05-07 18:07 38.76475 -9.13639 342 ft 0 kts 168°
2026-05-07 18:07 38.76474 -9.13639 342 ft 0 kts 168°